Washington, IA

8:24 AM CST on February 24, 2017 (GMT -0600)
Washington Municipal

Weather History for KAWG - April, 2013

Change the Weather History Date:

Wednesday, April 10, 2013

  Actual Average Record
Temperature  
Mean Temperature 44 °F -  
Max Temperature 48 °F 59 °F 87 °F (2011)
Min Temperature 39 °F 38 °F 28 °F (2012)
Degree Days  
Heating Degree Days 22    
Moisture  
Dew Point 42 °F    
Average Humidity 100    
Maximum Humidity 100    
Minimum Humidity 93    
Precipitation  
Precipitation 2.02 in - - ()
Sea Level Pressure  
Sea Level Pressure 29.83 in    
Wind  
Wind Speed 16 mph (NE)    
Max Wind Speed 26 mph    
Max Gust Speed 32 mph    
Visibility 9 miles    
Events Rain    
Averages and records for this station are not official NWS values.
T = Trace of Precipitation, MM = Missing Value Source: NWS Daily Summary

Daily Weather History Graph

Daily Weather History Graph

Search for Another Location

Airport or City:

Trip Planner

Search our weather history database for the weather conditions in past years. The results will help you decide how hot, cold, wet, or windy it might be!

Date:

Astronomy

Apr. 10, 2013 Rise Set
Actual Time 6:34 AM CDT 7:41 PM CDT
Civil Twilight 6:06 AM CDT 8:10 PM CDT
Nautical Twilight 5:32 AM CDT 8:44 PM CDT
Astronomical Twilight 4:57 AM CDT 9:19 PM CDT
Moon 6:30 AM CDT (4/10) 8:18 PM CDT (4/10)
Length of Visible Light 14h 03m
Length of Day
13h 07m
New Moon, 0% of the Moon is Illuminated
Apr 10
New Moon
Apr 18
First Quarter
Apr 25
Full
May 2
Last Quarter
May 9
New

Hourly Weather History & Observations

Time (CDT) Temp. Windchill Dew Point Humidity Pressure Visibility Wind Dir Wind Speed Gust Speed Precip Events Conditions
12:15 AM 48.2 °F - 46.4 °F 93% 29.81 in 7.0 mi ENE 17.3 mph - N/A   Mostly Cloudy
12:35 AM 46.4 °F 40.4 °F 46.4 °F 100% 29.81 in 7.0 mi ENE 13.8 mph - N/A   Scattered Clouds
12:55 AM 46.4 °F 39.8 °F 46.4 °F 100% 29.81 in 7.0 mi ENE 16.1 mph - N/A   Scattered Clouds
1:15 AM 46.4 °F 40.1 °F 46.4 °F 100% 29.81 in 7.0 mi ENE 15.0 mph - N/A   Mostly Cloudy
1:35 AM 46.4 °F 40.7 °F 44.6 °F 93% 29.82 in 7.0 mi NE 12.7 mph - N/A   Overcast
1:55 AM 46.4 °F 39.8 °F 44.6 °F 93% 29.81 in 7.0 mi NE 16.1 mph - N/A   Overcast
2:15 AM 44.6 °F 37.2 °F 44.6 °F 100% 29.81 in 7.0 mi NE 17.3 mph - N/A   Overcast
2:35 AM 44.6 °F 37.2 °F 44.6 °F 100% 29.82 in 1.5 mi NE 17.3 mph 24.2 mph 0.18 in Rain Heavy Rain
2:55 AM 44.6 °F 38.1 °F 44.6 °F 100% 29.91 in 3.0 mi NNW 13.8 mph 25.3 mph 0.25 in Rain Heavy Rain
3:15 AM 42.8 °F 34.3 °F 42.8 °F 100% 29.88 in 1.0 mi North 19.6 mph 23.0 mph 0.27 in Rain Rain
3:35 AM 42.8 °F 33.5 °F 42.8 °F 100% 29.85 in 10.0 mi NNE 23.0 mph 28.8 mph 0.28 in Rain Light Rain
3:55 AM 42.8 °F 32.9 °F 42.8 °F 100% 29.82 in 10.0 mi NE 26.5 mph 32.2 mph 0.33 in Rain Light Rain
4:15 AM 41.0 °F 31.6 °F 41.0 °F 100% 29.86 in 10.0 mi NE 20.7 mph 32.2 mph 0.03 in Rain Rain
4:35 AM 41.0 °F 32.8 °F 39.2 °F 93% 29.96 in 5.0 mi NNW 16.1 mph - 0.33 in Rain Rain
4:55 AM 39.2 °F 30.8 °F 39.2 °F 100% 29.88 in 4.0 mi NE 15.0 mph 20.7 mph 0.50 in Rain Rain
5:15 AM 39.2 °F 29.6 °F 39.2 °F 100% 29.82 in 10.0 mi NE 19.6 mph - 0.03 in Rain Light Rain
5:35 AM 39.2 °F 29.8 °F 39.2 °F 100% 29.86 in 10.0 mi East 18.4 mph 26.5 mph 0.03 in   Overcast
5:55 AM 39.2 °F 30.2 °F 39.2 °F 100% 29.83 in 10.0 mi East 17.3 mph 23.0 mph 0.03 in   Overcast
6:15 AM 39.2 °F 31.2 °F 39.2 °F 100% 29.83 in 10.0 mi East 13.8 mph - N/A   Overcast
6:35 AM 39.2 °F 30.2 °F 39.2 °F 100% 29.82 in 10.0 mi East 17.3 mph 23.0 mph N/A   Mostly Cloudy
6:55 AM 39.2 °F 29.6 °F 39.2 °F 100% 29.80 in 10.0 mi ENE 19.6 mph - N/A   Overcast
7:15 AM 39.2 °F 30.8 °F 39.2 °F 100% 29.84 in 10.0 mi NE 15.0 mph - N/A   Overcast
7:35 AM 39.2 °F 30.2 °F 39.2 °F 100% 29.86 in 10.0 mi ENE 17.3 mph - N/A   Overcast
7:55 AM 39.2 °F 34.2 °F 39.2 °F 100% 29.98 in 10.0 mi South 6.9 mph - 0.01 in Rain Rain
8:15 AM 41.0 °F 38.0 °F 41.0 °F 100% 29.96 in 4.0 mi South 4.6 mph - 0.09 in Rain Heavy Rain
8:35 AM 41.0 °F 32.2 °F 41.0 °F 100% 29.80 in 5.0 mi NE 18.4 mph 21.9 mph 0.16 in Rain Rain
8:55 AM 39.2 °F 30.5 °F 39.2 °F 100% 29.81 in 7.0 mi North 16.1 mph - 0.17 in   Overcast
9:15 AM 39.2 °F 33.6 °F 39.2 °F 100% 29.85 in 10.0 mi NE 8.1 mph - N/A   Overcast
9:55 AM 41.0 °F 34.3 °F 41.0 °F 100% 29.88 in 10.0 mi NE 11.5 mph - N/A   Overcast
10:15 AM 41.0 °F 33.5 °F 41.0 °F 100% 29.86 in 10.0 mi NE 13.8 mph - N/A   Drizzle
10:35 AM 41.0 °F 34.3 °F 41.0 °F 100% 29.89 in 10.0 mi ENE 11.5 mph - N/A   Overcast
10:55 AM 41.0 °F 35.2 °F 41.0 °F 100% 29.90 in 10.0 mi NE 9.2 mph - N/A   Overcast
11:15 AM 41.0 °F 34.7 °F 41.0 °F 100% 29.91 in 10.0 mi NNE 10.4 mph - N/A   Overcast
11:35 AM 41.0 °F 36.4 °F 41.0 °F 100% 29.93 in 10.0 mi North 6.9 mph - N/A   Overcast
12:15 PM 41.0 °F 36.4 °F 41.0 °F 100% 29.96 in 5.0 mi ENE 6.9 mph - 0.04 in Rain Rain
12:35 PM 41.0 °F 33.5 °F 41.0 °F 100% 29.91 in 10.0 mi NNE 13.8 mph - 0.04 in   Light Drizzle
12:55 PM 41.0 °F 33.9 °F 41.0 °F 100% 29.91 in 10.0 mi NNE 12.7 mph - 0.05 in   Overcast
1:15 PM 41.0 °F 34.7 °F 41.0 °F 100% 29.94 in 10.0 mi NNE 10.4 mph - 0.03 in Rain Rain
1:35 PM 41.0 °F 34.7 °F 41.0 °F 100% 29.93 in 10.0 mi NNE 10.4 mph - 0.09 in Rain Rain
2:15 PM 41.0 °F 32.8 °F 41.0 °F 100% 29.89 in 10.0 mi NNE 16.1 mph - 0.03 in Rain Light Rain
2:35 PM 41.0 °F 31.6 °F 41.0 °F 100% 29.83 in 10.0 mi NE 20.7 mph - 0.05 in Rain Light Rain
2:55 PM 41.0 °F 32.2 °F 41.0 °F 100% 29.84 in 10.0 mi NE 18.4 mph - 0.05 in   Overcast
3:15 PM 41.0 °F 33.5 °F 41.0 °F 100% 29.86 in 10.0 mi NNE 13.8 mph 21.9 mph N/A   Overcast
3:35 PM 41.0 °F 31.6 °F 41.0 °F 100% 29.79 in 10.0 mi NE 20.7 mph 24.2 mph 0.01 in Rain Rain
3:55 PM 42.8 °F 34.3 °F 42.8 °F 100% 29.82 in 10.0 mi ENE 19.6 mph 24.2 mph 0.01 in   Overcast
4:15 PM 42.8 °F 35.4 °F 42.8 °F 100% 29.84 in 10.0 mi East 15.0 mph 21.9 mph N/A   Overcast
4:35 PM 42.8 °F 34.8 °F 42.8 °F 100% 29.84 in 10.0 mi East 17.3 mph 23.0 mph N/A   Overcast
4:55 PM 42.8 °F 35.1 °F 42.8 °F 100% 29.80 in 10.0 mi ENE 16.1 mph - N/A   Overcast
5:15 PM 42.8 °F 34.8 °F 42.8 °F 100% 29.79 in 10.0 mi ENE 17.3 mph - N/A   Overcast
5:35 PM 42.8 °F 35.8 °F 42.8 °F 100% 29.78 in 7.0 mi NE 13.8 mph - 0.01 in Rain Rain
5:55 PM 42.8 °F 36.6 °F 42.8 °F 100% 29.79 in 10.0 mi ENE 11.5 mph - 0.02 in Rain Light Rain
6:15 PM 42.8 °F 37.5 °F 42.8 °F 100% 29.80 in 10.0 mi North 9.2 mph - 0.04 in Rain Rain
6:35 PM 42.8 °F 38.6 °F 42.8 °F 100% 29.83 in 10.0 mi NNE 6.9 mph - 0.06 in Rain Light Rain
6:55 PM 42.8 °F 36.6 °F 42.8 °F 100% 29.81 in 10.0 mi NNE 11.5 mph - 0.09 in Rain Rain
7:15 PM 42.8 °F 34.3 °F 42.8 °F 100% 29.76 in 10.0 mi NE 19.6 mph - 0.03 in Rain Light Rain
7:35 PM 42.8 °F 34.8 °F 42.8 °F 100% 29.74 in 10.0 mi NE 17.3 mph 20.7 mph 0.05 in Rain Light Rain
7:55 PM 42.8 °F 34.0 °F 42.8 °F 100% 29.75 in 10.0 mi NE 20.7 mph - 0.05 in Rain Rain
8:15 PM 42.8 °F 35.4 °F 42.8 °F 100% 29.80 in 10.0 mi ENE 15.0 mph - 0.03 in Rain Light Rain
8:35 PM 41.0 °F 33.5 °F 41.0 °F 100% 29.81 in 10.0 mi ENE 13.8 mph 20.7 mph 0.08 in Rain Rain
8:55 PM 41.0 °F 33.9 °F 41.0 °F 100% 29.83 in 7.0 mi NE 12.7 mph - 0.17 in Rain Rain
9:15 PM 41.0 °F 34.3 °F 41.0 °F 100% 29.83 in 3.0 mi NE 11.5 mph - 0.10 in Rain Rain
9:55 PM 41.0 °F 30.7 °F 41.0 °F 100% 29.73 in 10.0 mi ENE 25.3 mph 29.9 mph 0.20 in Rain Light Rain
10:15 PM 39.2 °F 29.0 °F 39.2 °F 100% 29.73 in 10.0 mi NE 21.9 mph 28.8 mph N/A   Overcast
10:35 PM 39.2 °F 29.3 °F 39.2 °F 100% 29.72 in 10.0 mi NE 20.7 mph 29.9 mph N/A   Mostly Cloudy
10:55 PM 39.2 °F 29.8 °F 39.2 °F 100% 29.72 in 10.0 mi ENE 18.4 mph 27.6 mph N/A   Overcast
11:15 PM 39.2 °F 29.0 °F 39.2 °F 100% 29.71 in 10.0 mi ENE 21.9 mph 26.5 mph N/A   Overcast
11:35 PM 39.2 °F 29.6 °F 39.2 °F 100% 29.71 in 10.0 mi ENE 19.6 mph 24.2 mph N/A   Overcast
11:55 PM 39.2 °F 29.0 °F 39.2 °F 100% 29.70 in 10.0 mi ENE 21.9 mph 28.8 mph N/A   Overcast